• în România
  • Lista ţărilor
  • Pe 7 zile
  • Temperatura apei
  • Hartă satelitară
  • Meteo pe hartă
  • Widget-uri
  • user-avatar
    Intrare

    Meteo pe oră la Enebey-Ursaevo

    Astăzi, 17 Octombrie, Miercuri

    Timp Temperatura Precipitaţii Vânt Presiune Umiditate
    00:00 +5°C° 0 mm 3 m/s 751 mmHg 95%
    01:00 +5°C° 0 mm 3 m/s 751 mmHg 95%
    02:00 +5°C° 0 mm 3 m/s 751 mmHg 95%
    03:00 +5°C° 0 mm 3 m/s 751 mmHg 94%
    04:00 +5°C° 0 mm 3 m/s 750 mmHg 94%
    05:00 +6°C° 0 mm 4 m/s 750 mmHg 94%
    06:00 +6°C° 0 mm 4 m/s 750 mmHg 93%
    07:00 +6°C° 0 mm 4 m/s 749 mmHg 93%
    08:00 +7°C° 0 mm 5 m/s 749 mmHg 89%
    09:00 +8°C° 0 mm 5 m/s 749 mmHg 85%
    10:00 +9°C° 0 mm 6 m/s 748 mmHg 81%
    11:00 +10°C° 0 mm 6 m/s 748 mmHg 76%
    12:00 +11°C° 0 mm 6 m/s 748 mmHg 71%
    13:00 +12°C° 0 mm 7 m/s 748 mmHg 66%
    14:00 +11°C° 0 mm 7 m/s 748 mmHg 70%
    15:00 +10°C° 0 mm 7 m/s 748 mmHg 73%
    16:00 +10°C° 0 mm 7 m/s 748 mmHg 77%
    17:00 +9°C° 0 mm 7 m/s 748 mmHg 76%
    18:00 +9°C° 0 mm 7 m/s 749 mmHg 76%
    19:00 +8°C° 0 mm 7 m/s 749 mmHg 76%
    20:00 +7°C° 0 mm 6 m/s 750 mmHg 75%
    21:00 +5°C° 0 mm 6 m/s 751 mmHg 75%
    22:00 +5°C° 0 mm 5 m/s 751 mmHg 74%
    23:00 +3°C° 0 mm 5 m/s 752 mmHg 76%

    Mâine, 18 Octombrie, Joi

    Timp Temperatura Precipitaţii Vânt Presiune Umiditate
    00:00 +3°C° 0 mm 5 m/s 752 mmHg 78%
    01:00 +3°C° 0 mm 4 m/s 753 mmHg 80%
    02:00 +3°C° 0 mm 4 m/s 753 mmHg 83%
    03:00 +1°C° 0 mm 4 m/s 753 mmHg 85%
    04:00 +2°C° 0 mm 3 m/s 754 mmHg 87%
    05:00 +2°C° 0 mm 3 m/s 754 mmHg 88%
    06:00 +1°C° 0 mm 3 m/s 754 mmHg 90%
    07:00 +1°C° 0 mm 3 m/s 754 mmHg 91%
    08:00 +1°C° 0 mm 4 m/s 755 mmHg 84%
    09:00 +4°C° 0 mm 4 m/s 755 mmHg 77%
    10:00 +5°C° 0 mm 5 m/s 755 mmHg 70%
    11:00 +6°C° 0 mm 5 m/s 755 mmHg 66%
    12:00 +7°C° 0 mm 5 m/s 755 mmHg 61%
    13:00 +8°C° 0 mm 5 m/s 755 mmHg 57%
    14:00 +8°C° 0 mm 5 m/s 755 mmHg 57%
    15:00 +8°C° 0 mm 4 m/s 755 mmHg 58%
    16:00 +8°C° 0 mm 4 m/s 754 mmHg 59%
    17:00 +7°C° 0 mm 4 m/s 754 mmHg 64%
    18:00 +7°C° 0 mm 3 m/s 755 mmHg 69%
    19:00 +5°C° 0 mm 3 m/s 755 mmHg 74%
    20:00 +4°C° 0 mm 3 m/s 754 mmHg 76%
    21:00 +4°C° 0 mm 3 m/s 754 mmHg 77%
    22:00 +3°C° 0 mm 3 m/s 754 mmHg 79%
    23:00 +3°C° 0 mm 3 m/s 754 mmHg 79%

    Poimâine, 19 Octombrie, Vineri

    Timp Temperatura Precipitaţii Vânt Presiune Umiditate
    00:00 +3°C° 0 mm 3 m/s 754 mmHg 80%
    01:00 +3°C° 0 mm 3 m/s 754 mmHg 80%
    02:00 +3°C° 0 mm 4 m/s 754 mmHg 79%
    03:00 +4°C° 0 mm 4 m/s 753 mmHg 77%
    04:00 +4°C° 0 mm 4 m/s 753 mmHg 76%
    05:00 +4°C° 0 mm 4 m/s 753 mmHg 77%
    06:00 +4°C° 0 mm 4 m/s 753 mmHg 78%
    07:00 +3°C° 0 mm 5 m/s 752 mmHg 79%
    08:00 +5°C° 0 mm 5 m/s 752 mmHg 78%
    09:00 +6°C° 0 mm 5 m/s 752 mmHg 77%
    10:00 +7°C° 0 mm 6 m/s 752 mmHg 75%
    11:00 +8°C° 0 mm 6 m/s 751 mmHg 73%
    12:00 +10°C° 0 mm 6 m/s 751 mmHg 71%
    13:00 +11°C° 0 mm 7 m/s 751 mmHg 68%
    14:00 +11°C° 0 mm 6 m/s 751 mmHg 69%
    15:00 +11°C° 0 mm 6 m/s 750 mmHg 70%
    16:00 +11°C° 0 mm 6 m/s 750 mmHg 71%
    17:00 +10°C° 0 mm 6 m/s 750 mmHg 75%
    18:00 +10°C° 0 mm 5 m/s 750 mmHg 79%
    19:00 +9°C° 0 mm 5 m/s 750 mmHg 83%
    20:00 +9°C° 0 mm 5 m/s 750 mmHg 84%
    21:00 +9°C° 0 mm 5 m/s 750 mmHg 85%
    22:00 +8°C° 0 mm 5 m/s 750 mmHg 87%
    23:00 +8°C° 0 mm 5 m/s 750 mmHg 86%

    20 Octombrie, Sâmbătă

    Timp Temperatura Precipitaţii Vânt Presiune Umiditate
    00:00 +8°C° 0 mm 5 m/s 750 mmHg 86%
    01:00 +8°C° 0 mm 5 m/s 750 mmHg 85%
    02:00 +8°C° 0 mm 5 m/s 749 mmHg 86%
    03:00 +8°C° 0 mm 5 m/s 749 mmHg 86%
    04:00 +7°C° 0 mm 5 m/s 749 mmHg 86%
    05:00 +7°C° 0 mm 5 m/s 749 mmHg 84%
    06:00 +7°C° 0 mm 6 m/s 749 mmHg 82%
    07:00 +7°C° 0 mm 6 m/s 748 mmHg 81%
    08:00 +8°C° 0 mm 6 m/s 748 mmHg 76%
    09:00 +8°C° 0 mm 7 m/s 748 mmHg 72%
    10:00 +9°C° 0 mm 7 m/s 748 mmHg 68%
    11:00 +10°C° 0.1 mm 7 m/s 748 mmHg 65%
    12:00 +11°C° 0.1 mm 7 m/s 748 mmHg 63%
    13:00 +12°C° 0.1 mm 8 m/s 748 mmHg 61%
    14:00 +11°C° 0.3 mm 7 m/s 748 mmHg 64%
    15:00 +11°C° 0.3 mm 7 m/s 747 mmHg 67%
    16:00 +11°C° 0.3 mm 6 m/s 747 mmHg 69%
    17:00 +10°C° 0.2 mm 6 m/s 748 mmHg 75%
    18:00 +9°C° 0.2 mm 5 m/s 748 mmHg 81%
    19:00 +8°C° 0.2 mm 4 m/s 748 mmHg 87%
    20:00 +8°C° 0 mm 3 m/s 749 mmHg 88%
    21:00 +7°C° 0 mm 3 m/s 749 mmHg 88%
    22:00 +7°C° 0 mm 3 m/s 749 mmHg 89%
    23:00 +5°C° 0 mm 3 m/s 750 mmHg 90%

    21 Octombrie, Duminică

    Timp Temperatura Precipitaţii Vânt Presiune Umiditate
    00:00 +4°C° 0 mm 3 m/s 750 mmHg 90%
    01:00 +5°C° 0 mm 2 m/s 750 mmHg 91%
    02:00 +5°C° 0 mm 2 m/s 750 mmHg 91%
    03:00 +4°C° 0 mm 2 m/s 751 mmHg 92%
    04:00 +4°C° 0 mm 2 m/s 751 mmHg 93%
    05:00 +4°C° 0 mm 2 m/s 751 mmHg 93%
    06:00 +3°C° 0 mm 2 m/s 751 mmHg 92%
    07:00 +3°C° 0 mm 2 m/s 751 mmHg 92%
    08:00 +4°C° 0 mm 2 m/s 752 mmHg 86%
    09:00 +4°C° 0 mm 3 m/s 752 mmHg 80%
    10:00 +5°C° 0 mm 3 m/s 752 mmHg 73%
    11:00 +7°C° 0 mm 3 m/s 752 mmHg 69%
    12:00 +8°C° 0 mm 3 m/s 753 mmHg 66%
    13:00 +8°C° 0 mm 3 m/s 753 mmHg 62%
    14:00 +8°C° 0 mm 3 m/s 753 mmHg 63%
    15:00 +8°C° 0 mm 3 m/s 753 mmHg 63%
    16:00 +8°C° 0 mm 3 m/s 753 mmHg 64%
    17:00 +7°C° 0 mm 2 m/s 753 mmHg 68%
    18:00 +6°C° 0 mm 2 m/s 753 mmHg 73%
    19:00 +5°C° 0 mm 2 m/s 753 mmHg 77%
    20:00 +6°C° 0 mm 1 m/s 753 mmHg 79%
    21:00 +6°C° 0 mm 1 m/s 753 mmHg 81%
    22:00 +5°C° 0 mm 1 m/s 753 mmHg 83%
    23:00 +5°C° 0 mm 1 m/s 753 mmHg 84%

    22 Octombrie, Luni

    Timp Temperatura Precipitaţii Vânt Presiune Umiditate
    00:00 +5°C° 0 mm 1 m/s 753 mmHg 85%
    01:00 +3°C° 0 mm 0 m/s 753 mmHg 86%
    02:00 +3°C° 0 mm 0 m/s 753 mmHg 86%
    03:00 +3°C° 0 mm 0 m/s 754 mmHg 86%
    04:00 +3°C° 0 mm 0 m/s 754 mmHg 86%
    05:00 +3°C° 0 mm 0 m/s 754 mmHg 87%
    06:00 +4°C° 0 mm 1 m/s 754 mmHg 87%
    07:00 +4°C° 0 mm 1 m/s 754 mmHg 88%
    08:00 +4°C° 0 mm 1 m/s 754 mmHg 84%
    09:00 +5°C° 0 mm 1 m/s 754 mmHg 80%
    10:00 +6°C° 0 mm 1 m/s 754 mmHg 76%
    11:00 +7°C° 0 mm 1 m/s 754 mmHg 72%
    12:00 +6°C° 0 mm 2 m/s 754 mmHg 68%
    13:00 +7°C° 0 mm 2 m/s 754 mmHg 64%
    14:00 +7°C° 0 mm 2 m/s 754 mmHg 64%
    15:00 +7°C° 0 mm 2 m/s 754 mmHg 65%
    16:00 +7°C° 0 mm 2 m/s 754 mmHg 65%
    17:00 +6°C° 0 mm 2 m/s 754 mmHg 69%
    18:00 +5°C° 0 mm 2 m/s 754 mmHg 73%
    19:00 +4°C° 0 mm 2 m/s 754 mmHg 77%
    20:00 +4°C° 0 mm 2 m/s 754 mmHg 79%
    21:00 +4°C° 0 mm 1 m/s 754 mmHg 81%
    22:00 +4°C° 0 mm 1 m/s 754 mmHg 83%
    23:00 +3°C° 0 mm 1 m/s 754 mmHg 84%
    Arată mai mult